User: anonymous   Login
Location: Bagnara
(41.0500°N, 14.7833°E)
Time: 21:02:50
(UTC+00:00)
Language:

Cosmos 372 Rocket - Orbit

View from above orbital plane
View from above orbital plane
View from above satellite
View from above satellite

Ground track
Ground track

The orbit data is extracted from the following two-line orbital elements,

1 04589U 70086B   21266.85471925  .00000007  00000-0  10352-4 0  9997
2 04589  74.0599 313.1150 0019762 137.4857 222.7834 14.41654786671475
Epoch (UTC): 23 September 2021 20:30:47
Eccentricity: 0.0019762
inclination: 74.0599°
perigee height: 739 km
apogee height: 767 km
right ascension of ascending node: 313.1150°
argument of perigee: 137.4857°
revolutions per day: 14.41654786
mean anomaly at epoch: 222.7834°
orbit number at epoch: 67147

The dashed part of the orbit path shows where the satellite is in the earth's shadow,  

DLR